Showing default

JILIN-01 KUANFU 01, 45016

Orbit data source: Space-Track

JILIN-01 KUANFU 01, 45016 is a payload satellite owned by Changguang WJ (CN) in SSO that was launched on Wed, 15 Jan 2020 UTC via a CHANG ZHENG 2D launch vehicle from the Taiyaun Space Center, China (TSC). Payload-class satellites include a variety of spacecraft equipped with specific instruments for various scientific and technological missions. These include communications satellites like Starlink; space stations such as the ISS; scientific satellites like the Hubble; Earth observation satellites from companies like Planet Labs, Umbra, and HawkEye 360; GPS; miniature CubeSats for education and research; and military/defense satellites.

Loading next visibility...
Identifier
45016, 2020-003A
Orbit
SSO
Country
Flag of CNCN / PRC
Related business
Manufacturer
HARB/CIOMP
Mission
Operational Commercial Imaging
Bus & Motor
JL-1, Unknown motor
Mass
1,250 kg wet, 1,250 kg dry
Launch date (UTC)
2020-01-15 (6 years ago)
Launch vehicle
CHANG ZHENG 2D
Launch site
Taiyaun Space Center, China (TSC)
Object type
Payload
Rocket body
Debris
Shape & HBR
Box + 2 Pan, 0.8 m
Radar Cross Section
2.000 m², Large (>1 m²)

Expand to show TLE details & history
Last TLE update: 11 hours ago

TLE from 11 hours ago
0 JILIN-01 KUANFU 01
1 45016U 20003A   25258.64345434  .00003521  00000-0  21985-3 0  9995
2 45016  97.5335 332.7025 0004440 205.6264 154.4746 15.10118201313894
Epoch: 2025-09-15T15:26Z
TLE epoch observation values (Epoch: 2025-09-15T15:26:34.454Z)
Latitude
-0.00005°
Longitude
106.21379°
Altitude
541.683 km
Speed
7.59 km/s
True Right ascension
22h 10m 48s
True Declination
0° 00' 00"
Sunlit
Object was in full shadow at epoch
Visualization orbit readout
Latitude
Unknown
Longitude
Unknown
Altitude
Unknown
Speed
Unknown
Apparent Right ascension
Unknown
Apparent Declination
Unknown
Sunlit
N/A
Visualization observer readout
Local Sidereal Time
18:54:05
Azimuth
Unknown
Elevation
Unknown
Doppler factor
Unknown
Orbital elements
Apogee altitude
535.892 km
Perigee altitude
529.755 km
Semi-major axis
6,910.961 km
Eccentricity
0.00044
Inclination
97.5335°
RAAN
332.7025°
Arg. of periapsis
205.6264°
True anomaly
154.49651°
Mean anomaly
154.4746°
Eccentric anomaly
154.48556°
Mean motion
3.77777 °/min
Orbital period
95.29 mins
BSTAR
0.00021985
Loading maneuver chart data...
Computing Atmospheric mass density...
Loading historical data...
Loading historical data...
Loading historical data...
Loading historical data...
Loading historical data...
Loading historical data...
Loading historical data...

Documentation

Showing up to 5 results
|